Location: Newark
(34.4331°S, 150.8831°E)
Time: 08:43:50
(UTC+00:00)

Envisat - Visible Passes

Search period start: 01 October 2020 00:00
Search period end: 11 October 2020 00:00
Orbit: 764 x 766 km, 98.1° (Epoch: 01 October)

Date Brightness Start Highest point End Pass type
(mag) Time Alt. Az. Time Alt. Az. Time Alt. Az.
01 Oct 5.7 09:00:29 10° SSW 09:04:25 23° WSW 09:08:19 10° WNW visible
01 Oct 5.0 18:31:58 10° NE 18:36:30 33° ESE 18:41:04 10° S visible
02 Oct 4.1 08:22:54 10° S 08:27:54 51° WSW 08:32:49 10° NNW visible
02 Oct 6.2 17:57:17 10° E 18:00:05 15° ESE 18:02:52 10° SSE visible
03 Oct 6.3 09:27:23 10° SW 09:29:33 13° WSW 09:31:41 10° W visible
03 Oct 3.7 18:56:47 10° NNE 19:01:47 60° ESE 19:06:52 10° S visible
04 Oct 5.3 08:48:48 10° SSW 08:53:10 29° WSW 08:57:29 10° NW visible
04 Oct 5.4 18:21:03 10° NE 18:25:13 26° ESE 18:29:27 10° SSE visible
05 Oct 6.5 17:47:16 10° E 17:48:52 11° ESE 17:50:29 10° SE visible
06 Oct 6.2 09:15:14 10° SSW 09:18:19 16° WSW 09:21:24 10° WNW visible
06 Oct 4.3 18:45:37 10° NE 18:50:28 47° ESE 18:55:23 10° S visible
07 Oct 4.9 08:37:12 10° S 08:41:53 36° WSW 08:46:31 10° NW visible
07 Oct 5.9 18:10:15 10° ENE 18:13:58 21° ESE 18:17:42 10° SSE visible
09 Oct 5.9 09:03:21 10° SSW 09:07:05 21° WSW 09:10:48 10° WNW visible
09 Oct 4.8 18:34:32 10° NE 18:39:10 36° ESE 18:43:51 10° S visible
10 Oct 4.3 08:25:40 10° S 08:30:35 47° WSW 08:35:26 10° NW visible
10 Oct 6.2 17:59:40 10° ENE 18:02:44 16° ESE 18:05:49 10° SSE visible
